Flag for Austria Weather past 2 weeks in Bruck an der Leitha, Lower Austria, Austria

58 °F


Feels Like: N/A
Forecast: 53 / 59 °F
Wind: N/A

Location: Wien / Schwechat-Flughafen

Current Time: Oct 7, 2015 at 8:01:26 PM

Latest Report: Oct 7, 2015 at 7:00 PM

Visibility: 4 mi

Pressure: 29.94 "Hg

Humidity: 95%

Dew point: 57 °F

Location of Bruck an der LeithaLocation

Historic Weather in Bruck an der Leitha — Graph


Bruck an der Leitha temperature yesterday

Maximum temperature yesterday: 64 °F (at 3:00 PM)
Minimum temperature yesterday: 49 °F (at 5:00 AM)
Average temperature yesterday: 57 °F

Past Weeks' High & Low Weather Summary

High69 °F (Oct 3, 4:00 PM)100% (Oct 6, 7:00 AM)30.52 "Hg (Oct 6, 7:00 AM)
Low42 °F (Oct 1, 7:00 AM)41% (Sep 28, 3:00 PM)29.70 "Hg (Sep 23, 4:00 AM)
Average56 °F73%30.16 "Hg
* Reported Sep 22 6:00 PM — Oct 7 6:00 PM, Bruck an der Leitha, Weather by CustomWeather, © 2015

Note: Actual official high and low records may vary slightly from our data, if they occured in-between our weather recording intervals... More about our weather records


Bruck an der Leitha weather history for previous 24 hours

Time TempWeatherWind HumidityBarometerVisibility
6:00 PM
Wed, Oct 7
59 °FOvercast.N/A96%29.93 "Hg4 mi
5:00 PM59 °FOvercast.N/A91%29.92 "Hg4 mi
4:00 PM59 °FLow clouds.N/A90%29.92 "Hg5 mi
3:00 PM58 °FLow clouds.N/A92%29.92 "Hg4 mi
2:00 PM58 °FDrizzle. Low clouds.N/A97%29.92 "Hg3 mi
11:00 AM57 °FHeavy rain. Low clouds.5 mph97%29.90 "Hg2 mi
10:00 AM56 °FDrizzle. Low clouds.5 mph98%29.90 "Hg1 mi
9:00 AM56 °FDrizzle. Low clouds.3 mph97%29.88 "Hg1 mi
8:00 AM56 °FDrizzle. Low clouds.N/A96%29.86 "Hg2 mi
7:00 AM56 °FLight rain. Low clouds.3 mph97%29.85 "Hg2 mi
6:00 AM56 °FLow clouds.N/A97%29.85 "Hg3 mi
4:00 AM58 °FLow clouds.3 mph90%29.84 "Hg5 mi
3:00 AM58 °FOvercast.5 mph90%29.83 "Hg5 mi
2:00 AM58 °FOvercast.5 mph91%29.83 "Hg5 mi
1:00 AM58 °FOvercast.5 mph90%29.83 "Hg5 mi
12:00 AM59 °FOvercast.5 mph88%29.83 "Hg5 mi
11:00 PM
Tue, Oct 6
60 °FOvercast.3 mph87%29.83 "Hg6 mi
10:00 PM61 °FOvercast.5 mph85%29.82 "Hg6 mi
9:00 PM61 °FOvercast.5 mph85%29.82 "Hg6 mi
8:00 PM62 °FOvercast.5 mph84%29.82 "Hg6 mi
Weather by CustomWeather, © 2015

See weather overviewHow to use our weather pages